Lander, WY

4:28 PM MDT on March 25, 2017 (GMT -0600)
Hunt

Weather History for KLND - July, 2013

Change the Weather History Date:

Thursday, July 25, 2013

  Actual Average Record
Temperature  
Mean Temperature 72 °F 72 °F  
Max Temperature 84 °F 88 °F 97 °F (1945)
Min Temperature 59 °F 57 °F 43 °F (1892)
Degree Days  
Heating Degree Days 0 0  
Month to date heating degree days 0 11  
Since 1 June heating degree days 54 137  
Since 1 July heating degree days 0 11  
Cooling Degree Days 7 8  
Month to date cooling degree days 263 164  
Year to date cooling degree days 386 233  
Since 1 June cooling degree days 377 228  
Growing Degree Days 20 (Base 50)    
Moisture  
Dew Point 44 °F    
Average Humidity 42    
Maximum Humidity 56    
Minimum Humidity 27    
Precipitation  
Precipitation 0.00 in 0.03 in 0.88 in (1976)
Month to date precipitation 0.27 0.59  
Year to date precipitation 7.84 8.08  
Snow  
Snow 0.00 in 0.00 in - ()
Month to date snowfall 0.0 0.0  
Since 1 June snowfall 0.0 0.1  
Since 1 July snowfall 0.0 0.0  
Snow Depth 0.00 in    
Sea Level Pressure  
Sea Level Pressure 30.02 in    
Wind  
Wind Speed 6 mph (SSE)    
Max Wind Speed 21 mph    
Max Gust Speed 27 mph    
Visibility 10 miles    
Events      
T = Trace of Precipitation, MM = Missing Value Source: NWS Daily Summary

Daily Weather History Graph

Daily Weather History Graph

Search for Another Location

Airport or City:

Trip Planner

Search our weather history database for the weather conditions in past years. The results will help you decide how hot, cold, wet, or windy it might be!

Date:

Astronomy

Jul. 25, 2013 Rise Set
Actual Time 5:59 AM MDT 8:42 PM MDT
Civil Twilight 5:26 AM MDT 9:15 PM MDT
Nautical Twilight 4:45 AM MDT 9:56 PM MDT
Astronomical Twilight 3:57 AM MDT 10:43 PM MDT
Moon 10:17 PM MDT 9:39 AM MDT
Length of Visible Light 15h 48m
Length of Day
14h 43m
Waning Gibbous, 88% of the Moon is Illuminated
Jul 25
Waning Gibbous
Jul 29
Last Quarter
Aug 6
New
Aug 14
First Quarter
Aug 20
Full

Hourly Weather History & Observations

Time (MDT) Temp. Dew Point Humidity Pressure Visibility Wind Dir Wind Speed Gust Speed Precip Events Conditions
12:53 AM 69.1 °F 44.1 °F 40% 29.87 in 10.0 mi North 4.6 mph - N/A   Clear
1:53 AM 64.0 °F 44.1 °F 48% 29.88 in 10.0 mi NNW 4.6 mph - N/A   Clear
2:53 AM 64.9 °F 42.1 °F 43% 29.87 in 10.0 mi West 6.9 mph - N/A   Clear
3:53 AM 66.0 °F 39.9 °F 38% 29.87 in 10.0 mi WSW 10.4 mph - N/A   Clear
4:53 AM 59.0 °F 43.0 °F 55% 29.89 in 10.0 mi SE 5.8 mph - N/A   Clear
5:53 AM 63.0 °F 43.0 °F 48% 29.99 in 10.0 mi WSW 8.1 mph - N/A   Clear
6:53 AM 61.0 °F 44.1 °F 54% 30.02 in 10.0 mi SSE 3.5 mph - N/A   Clear
7:53 AM 63.0 °F 46.0 °F 54% 30.04 in 9.0 mi SSE 6.9 mph - N/A   Overcast
8:53 AM 70.0 °F 46.9 °F 44% 30.06 in 10.0 mi SE 10.4 mph - N/A   Clear
9:53 AM 72.0 °F 46.0 °F 40% 30.06 in 10.0 mi East 6.9 mph - N/A   Clear
10:53 AM 73.9 °F 45.0 °F 35% 30.06 in 10.0 mi West 3.5 mph - N/A   Clear
11:53 AM 75.9 °F 46.0 °F 35% 30.05 in 10.0 mi South 5.8 mph - N/A   Clear
12:53 PM 77.0 °F 46.9 °F 34% 30.03 in 10.0 mi Calm Calm - N/A   Clear
1:53 PM 81.0 °F 46.9 °F 30% 30.01 in 10.0 mi Calm Calm - N/A   Clear
2:43 PM 78.8 °F 44.6 °F 30% 30.23 in 10.0 mi NNW 9.2 mph - N/A   Clear
2:53 PM 80.1 °F 46.0 °F 30% 30.02 in 10.0 mi NNW 3.5 mph - N/A   Partly Cloudy
3:53 PM 78.1 °F 45.0 °F 31% 30.02 in 10.0 mi North 8.1 mph - N/A   Scattered Clouds
4:43 PM 75.2 °F 41.0 °F 29% 30.23 in 10.0 mi SSW 17.3 mph 27.6 mph N/A   Scattered Clouds
4:53 PM 77.0 °F 42.1 °F 29% 30.04 in 10.0 mi SSW 20.7 mph 26.5 mph N/A   Partly Cloudy
5:53 PM 79.0 °F 41.0 °F 26% 30.00 in 10.0 mi SE 3.5 mph - N/A   Clear
6:53 PM 77.0 °F 43.0 °F 30% 30.01 in 10.0 mi ESE 8.1 mph - N/A   Clear
7:53 PM 75.0 °F 44.1 °F 33% 30.01 in 10.0 mi SE 4.6 mph - N/A   Clear
8:53 PM 69.1 °F 42.1 °F 38% 30.03 in 10.0 mi ESE 11.5 mph - N/A   Clear
9:53 PM 64.9 °F 46.0 °F 50% 30.06 in 10.0 mi SE 10.4 mph - N/A   Clear
10:53 PM 64.9 °F 45.0 °F 48% 30.07 in 10.0 mi SE 6.9 mph - N/A   Clear
11:53 PM 64.0 °F 42.1 °F 45% 30.08 in 10.0 mi Calm Calm - N/A   Clear